Location: Newark
(42.8481°N, 0.4872°E)
Time: 08:19:39
(UTC+00:00)

Vanguard 2 - Pass Details

Date: 28 October 2020
Orbit: 554 x 2937 km, 32.9° (Epoch: 28 November)

Event Time Altitude Azimuth Distance (km) Brightness Sun altitude
Rises 22:14:34 0° 263° (W) 5,987 12.3 -55.2°
Reaches altitude 10° 22:18:12 10° 260° (W) 5,213 11.9 -55.6°
Enters shadow 22:24:34 31° 250° (WSW) 4,044 11.0 -56.3°
Maximum altitude 22:34:08 59° 187° (S) 3,246 - -57.2°
Drops below altitude 10° 22:50:50 10° 114° (ESE) 5,439 - -58.7°
Sets 22:54:45 0° 111° (ESE) 6,250 - -59.0°
